Year,Month,Day,Hour,Minute,Value (Times are PST for temperature in C)
2011,09,21,13,32,18.70
2011,09,21,13,33,18.70
2011,09,21,13,34,18.60
2011,09,21,13,35,18.60
2011,09,21,13,36,18.60
2011,09,21,13,37,18.60
2011,09,21,13,38,18.60
2011,09,21,13,39,18.60
2011,09,21,13,40,18.60
2011,09,21,13,41,18.60
2011,09,21,13,42,18.60
2011,09,21,13,43,18.60
2011,09,21,13,44,18.60
2011,09,21,13,45,18.60
2011,09,21,13,46,18.60
2011,09,21,13,47,18.60
2011,09,21,13,48,18.60
2011,09,21,13,49,18.60
2011,09,21,13,50,18.60
2011,09,21,13,51,18.60
2011,09,21,13,52,18.60
2011,09,21,13,53,18.60
2011,09,21,13,54,18.60
2011,09,21,13,55,18.60
2011,09,21,13,56,18.60
2011,09,21,13,57,18.60
2011,09,21,13,58,18.60
2011,09,21,13,59,18.50
2011,09,21,14,00,18.50
2011,09,21,14,01,18.50
2011,09,21,14,02,18.50
2011,09,21,14,03,18.40
2011,09,21,14,04,18.40
2011,09,21,14,05,18.40
2011,09,21,14,06,18.40
2011,09,21,14,07,18.40
2011,09,21,14,08,18.40
2011,09,21,14,09,18.40
2011,09,21,14,10,18.40
2011,09,21,14,11,18.40
2011,09,21,14,12,18.40
2011,09,21,14,13,18.30
2011,09,21,14,14,18.30
2011,09,21,14,15,18.30
2011,09,21,14,16,18.30
2011,09,21,14,17,18.20
2011,09,21,14,18,18.20
2011,09,21,14,19,18.20
2011,09,21,14,20,18.20
2011,09,21,14,21,18.20
2011,09,21,14,22,18.20
2011,09,21,14,23,18.20
2011,09,21,14,24,18.20
2011,09,21,14,25,18.20
2011,09,21,14,26,18.20
2011,09,21,14,27,18.20
2011,09,21,14,28,18.10
2011,09,21,14,29,18.10
2011,09,21,14,30,18.10
2011,09,21,14,31,18.10
2011,09,21,14,32,18.00
2011,09,21,14,33,17.90
2011,09,21,14,34,17.90
2011,09,21,14,35,17.90
2011,09,21,14,36,18.00
2011,09,21,14,37,18.10
2011,09,21,14,38,18.10
2011,09,21,14,39,18.10
2011,09,21,14,40,18.10
2011,09,21,14,41,18.20
2011,09,21,14,42,18.20
2011,09,21,14,43,18.20
2011,09,21,14,44,18.20
2011,09,21,14,45,18.20
2011,09,21,14,46,18.30
2011,09,21,14,47,18.40
2011,09,21,14,48,18.40
2011,09,21,14,49,18.50
2011,09,21,14,50,18.50
2011,09,21,14,51,18.50
2011,09,21,14,52,18.50
2011,09,21,14,53,18.60
2011,09,21,14,54,18.60
2011,09,21,14,55,18.70
2011,09,21,14,56,18.70
2011,09,21,14,57,18.70
2011,09,21,14,58,18.70
2011,09,21,14,59,18.80
2011,09,21,15,00,18.80
2011,09,21,15,01,18.90
2011,09,21,15,02,18.90
2011,09,21,15,03,18.90
2011,09,21,15,04,18.90
2011,09,21,15,05,19.00
2011,09,21,15,06,19.10
2011,09,21,15,07,19.10
2011,09,21,15,08,19.10
2011,09,21,15,09,19.20
2011,09,21,15,10,19.30
2011,09,21,15,11,19.30
2011,09,21,15,12,19.40
2011,09,21,15,13,19.50
2011,09,21,15,14,19.50
2011,09,21,15,15,19.60
2011,09,21,15,16,19.70
2011,09,21,15,17,19.80
2011,09,21,15,18,19.90
2011,09,21,15,19,20.00
2011,09,21,15,20,20.10
2011,09,21,15,21,20.20
2011,09,21,15,22,20.20
2011,09,21,15,23,20.20
2011,09,21,15,24,20.20
2011,09,21,15,25,20.20
2011,09,21,15,26,20.20
2011,09,21,15,27,20.20
2011,09,21,15,28,20.20
2011,09,21,15,29,20.20
2011,09,21,15,30,20.20
2011,09,21,15,31,20.20
2011,09,21,15,32,20.20
2011,09,21,15,33,20.20
2011,09,21,15,34,20.20
2011,09,21,15,35,20.20
2011,09,21,15,36,20.20
2011,09,21,15,37,20.30
2011,09,21,15,38,20.30
2011,09,21,15,39,20.30
2011,09,21,15,40,20.40
2011,09,21,15,41,20.40
2011,09,21,15,42,20.40
2011,09,21,15,43,20.50
2011,09,21,15,44,20.50
2011,09,21,15,45,20.60
2011,09,21,15,46,20.70
2011,09,21,15,47,20.70
2011,09,21,15,48,20.70
2011,09,21,15,49,20.70
2011,09,21,15,50,20.70
2011,09,21,15,51,20.80
2011,09,21,15,52,20.80
2011,09,21,15,53,20.70
2011,09,21,15,54,20.70
2011,09,21,15,55,20.70
2011,09,21,15,56,20.70
2011,09,21,15,57,20.60
2011,09,21,15,58,20.60
2011,09,21,15,59,20.60
2011,09,21,16,00,20.60
2011,09,21,16,01,20.50
2011,09,21,16,02,20.50
2011,09,21,16,03,20.50
2011,09,21,16,04,20.50
2011,09,21,16,05,20.50
2011,09,21,16,06,20.50
2011,09,21,16,07,20.50
2011,09,21,16,08,20.50
2011,09,21,16,09,20.50
2011,09,21,16,10,20.50
2011,09,21,16,11,20.50
2011,09,21,16,12,20.50
2011,09,21,16,13,20.50
2011,09,21,16,14,20.50
2011,09,21,16,15,20.50
2011,09,21,16,16,20.50
2011,09,21,16,17,20.50
2011,09,21,16,18,20.50
2011,09,21,16,19,20.40
2011,09,21,16,20,20.40
2011,09,21,16,21,20.40
2011,09,21,16,22,20.40
2011,09,21,16,23,20.50
2011,09,21,16,24,20.50
2011,09,21,16,25,20.50
2011,09,21,16,26,20.50
2011,09,21,16,27,20.50
2011,09,21,16,28,20.40
2011,09,21,16,29,20.40
2011,09,21,16,30,20.40
2011,09,21,16,31,20.40
2011,09,21,16,32,20.40
2011,09,21,16,33,20.40
2011,09,21,16,34,20.40
2011,09,21,16,35,20.40
2011,09,21,16,36,20.40
2011,09,21,16,37,20.40
2011,09,21,16,38,20.40
2011,09,21,16,39,20.40
2011,09,21,16,40,20.40
2011,09,21,16,41,20.40
